TimeMDT,TemperatureF,Dew PointF,Humidity,Sea Level PressureIn,VisibilityMPH,Wind Direction,Wind SpeedMPH,Gust SpeedMPH,PrecipitationIn,Events,Conditions,WindDirDegrees,DateUTC
12:15 AM,43.7,43.7,100,30.09,10.0,Calm,Calm,-,N/A,,Clear,0,2013-10-20 06:15:00
12:35 AM,43.0,43.0,100,30.09,10.0,Calm,Calm,-,N/A,,Clear,0,2013-10-20 06:35:00
12:55 AM,42.8,42.8,100,30.08,10.0,Calm,Calm,-,N/A,,Clear,0,2013-10-20 06:55:00
1:15 AM,42.6,42.6,100,30.07,10.0,Calm,Calm,-,N/A,,Clear,0,2013-10-20 07:15:00
1:35 AM,42.3,42.3,100,30.07,10.0,South,3.5,-,N/A,,Clear,190,2013-10-20 07:35:00
1:55 AM,42.8,42.8,100,30.06,10.0,Calm,Calm,-,N/A,,Clear,0,2013-10-20 07:55:00
2:15 AM,43.0,43.0,100,30.06,10.0,Calm,Calm,-,N/A,,Clear,0,2013-10-20 08:15:00
2:35 AM,42.8,42.8,100,30.05,10.0,Calm,Calm,-,N/A,,Clear,0,2013-10-20 08:35:00
2:55 AM,42.3,42.3,100,30.04,10.0,Calm,Calm,-,N/A,,Clear,0,2013-10-20 08:55:00
3:15 AM,41.9,41.9,100,30.04,10.0,Calm,Calm,-,N/A,,Clear,0,2013-10-20 09:15:00
3:35 AM,41.9,41.9,100,30.03,10.0,Calm,Calm,-,N/A,,Clear,0,2013-10-20 09:35:00
3:55 AM,41.5,41.5,100,30.03,10.0,Calm,Calm,-,N/A,,Clear,0,2013-10-20 09:55:00
4:15 AM,41.5,41.5,100,30.03,10.0,Calm,Calm,-,N/A,,Clear,0,2013-10-20 10:15:00
4:35 AM,41.4,41.4,100,30.04,10.0,Calm,Calm,-,N/A,,Clear,0,2013-10-20 10:35:00
4:55 AM,41.4,41.4,100,30.04,10.0,Calm,Calm,-,N/A,,Clear,0,2013-10-20 10:55:00
5:15 AM,41.4,41.4,100,30.04,10.0,Calm,Calm,-,N/A,,Clear,0,2013-10-20 11:15:00
5:35 AM,41.2,41.2,100,30.04,10.0,Calm,Calm,-,N/A,,Clear,0,2013-10-20 11:35:00
5:55 AM,41.5,41.5,100,30.04,10.0,Calm,Calm,-,N/A,,Clear,0,2013-10-20 11:55:00
6:15 AM,41.9,41.9,100,30.04,10.0,Calm,Calm,-,N/A,,Clear,0,2013-10-20 12:15:00
6:35 AM,41.9,41.9,100,30.05,10.0,Calm,Calm,-,N/A,,Clear,0,2013-10-20 12:35:00
6:55 AM,42.1,42.1,100,30.05,10.0,Calm,Calm,-,N/A,,Clear,0,2013-10-20 12:55:00
7:15 AM,42.8,42.8,100,30.06,10.0,Calm,Calm,-,N/A,,Clear,0,2013-10-20 13:15:00
7:35 AM,45.7,45.7,100,30.06,10.0,Calm,Calm,-,N/A,,Clear,0,2013-10-20 13:35:00
7:55 AM,48.7,48.7,100,30.07,10.0,Calm,Calm,-,N/A,,Clear,0,2013-10-20 13:55:00
8:15 AM,53.2,44.6,72,30.07,10.0,Calm,Calm,-,N/A,,Clear,0,2013-10-20 14:15:00
8:35 AM,56.3,42.3,59,30.07,10.0,SSE,5.8,-,N/A,,Clear,160,2013-10-20 14:35:00
8:55 AM,58.1,42.1,55,30.08,10.0,SSE,6.9,-,N/A,,Clear,150,2013-10-20 14:55:00
9:15 AM,59.4,42.4,54,30.07,10.0,South,8.1,-,N/A,,Clear,170,2013-10-20 15:15:00
9:35 AM,60.1,41.5,50,30.07,10.0,South,9.2,-,N/A,,Clear,190,2013-10-20 15:35:00
9:55 AM,62.4,42.3,48,30.07,10.0,South,8.1,-,N/A,,Clear,170,2013-10-20 15:55:00
10:15 AM,63.7,43.5,48,30.06,10.0,SSE,4.6,-,N/A,,Clear,160,2013-10-20 16:15:00
10:35 AM,64.0,43.5,47,30.06,10.0,SE,8.1,-,N/A,,Clear,140,2013-10-20 16:35:00
10:55 AM,65.5,43.7,45,30.05,10.0,SE,8.1,-,N/A,,Clear,140,2013-10-20 16:55:00
11:15 AM,67.5,43.0,41,30.04,10.0,SSE,5.8,-,N/A,,Clear,150,2013-10-20 17:15:00
11:35 AM,69.6,41.7,36,30.03,10.0,South,9.2,-,N/A,,Clear,180,2013-10-20 17:35:00
11:55 AM,69.8,42.6,37,30.01,10.0,South,8.1,-,N/A,,Clear,180,2013-10-20 17:55:00
12:15 PM,70.5,42.8,37,30.00,10.0,South,5.8,16.1,N/A,,Clear,170,2013-10-20 18:15:00
12:35 PM,71.6,43.9,37,29.99,10.0,SE,6.9,-,N/A,,Clear,140,2013-10-20 18:35:00
12:55 PM,72.1,43.7,36,29.98,10.0,South,9.2,16.1,N/A,,Clear,170,2013-10-20 18:55:00
1:15 PM,73.6,45.9,37,29.97,10.0,South,8.1,-,N/A,,Clear,190,2013-10-20 19:15:00
1:35 PM,73.9,45.9,37,29.95,10.0,South,5.8,18.4,N/A,,Clear,180,2013-10-20 19:35:00
1:55 PM,74.3,46.6,37,29.95,10.0,South,8.1,-,N/A,,Clear,180,2013-10-20 19:55:00
2:15 PM,74.5,46.2,37,29.94,10.0,South,9.2,16.1,N/A,,Clear,190,2013-10-20 20:15:00
2:35 PM,74.3,46.0,36,29.93,10.0,South,9.2,19.6,N/A,,Clear,180,2013-10-20 20:35:00
2:55 PM,74.1,46.2,37,29.92,10.0,SSE,13.8,19.6,N/A,,Clear,160,2013-10-20 20:55:00
3:15 PM,74.5,46.8,37,29.92,10.0,SSE,8.1,16.1,N/A,,Clear,160,2013-10-20 21:15:00
3:35 PM,74.7,46.6,37,29.92,10.0,South,8.1,17.3,N/A,,Clear,170,2013-10-20 21:35:00
3:55 PM,74.1,46.2,37,29.92,10.0,South,12.7,19.6,N/A,,Clear,180,2013-10-20 21:55:00
4:15 PM,73.6,46.8,38,29.92,10.0,South,10.4,16.1,N/A,,Clear,190,2013-10-20 22:15:00
4:35 PM,72.9,46.9,40,29.91,10.0,South,13.8,18.4,N/A,,Clear,180,2013-10-20 22:35:00
4:55 PM,72.5,46.4,39,29.91,10.0,South,8.1,16.1,N/A,,Clear,190,2013-10-20 22:55:00
5:15 PM,71.6,46.4,41,29.91,10.0,South,9.2,-,N/A,,Clear,180,2013-10-20 23:15:00
5:35 PM,70.3,46.4,42,29.90,10.0,SSE,4.6,-,N/A,,Scattered Clouds,160,2013-10-20 23:35:00
5:55 PM,67.6,47.3,48,29.91,10.0,Calm,Calm,-,N/A,,Scattered Clouds,0,2013-10-20 23:55:00
6:15 PM,64.8,48.6,56,29.92,10.0,Calm,Calm,-,N/A,,Clear,0,2013-10-21 00:15:00
6:35 PM,62.1,49.8,64,29.92,10.0,Calm,Calm,-,N/A,,Clear,0,2013-10-21 00:35:00
6:55 PM,62.1,48.6,61,29.92,10.0,SSE,3.5,-,N/A,,Clear,160,2013-10-21 00:55:00
7:15 PM,64.6,47.3,53,29.92,10.0,South,4.6,-,N/A,,Clear,170,2013-10-21 01:15:00
7:35 PM,62.4,48.2,60,29.92,10.0,South,3.5,-,N/A,,Clear,170,2013-10-21 01:35:00
7:55 PM,62.2,48.2,60,29.93,10.0,South,4.6,-,N/A,,Clear,170,2013-10-21 01:55:00
8:15 PM,61.7,48.2,61,29.92,10.0,South,3.5,-,N/A,,Clear,170,2013-10-21 02:15:00
8:35 PM,60.6,48.6,64,29.93,10.0,Calm,Calm,-,N/A,,Clear,0,2013-10-21 02:35:00
8:55 PM,60.8,48.6,64,29.94,10.0,South,3.5,-,N/A,,Clear,170,2013-10-21 02:55:00
9:15 PM,60.8,48.7,64,29.94,10.0,SSE,3.5,-,N/A,,Clear,160,2013-10-21 03:15:00
9:35 PM,60.3,48.6,65,29.94,10.0,South,3.5,-,N/A,,Clear,170,2013-10-21 03:35:00
9:55 PM,60.3,48.4,65,29.95,10.0,South,4.6,-,N/A,,Clear,170,2013-10-21 03:55:00
10:15 PM,59.0,48.4,68,29.95,10.0,Calm,Calm,-,N/A,,Clear,0,2013-10-21 04:15:00
10:35 PM,57.2,48.7,73,29.95,10.0,Calm,Calm,-,N/A,,Clear,0,2013-10-21 04:35:00
10:55 PM,54.9,49.1,81,29.94,10.0,Calm,Calm,-,N/A,,Clear,0,2013-10-21 04:55:00
11:15 PM,54.7,49.1,81,29.94,10.0,Calm,Calm,-,N/A,,Clear,0,2013-10-21 05:15:00
11:35 PM,56.3,48.6,75,29.93,10.0,ESE,3.5,-,N/A,,Clear,120,2013-10-21 05:35:00
11:55 PM,58.5,48.2,69,29.93,10.0,South,4.6,-,N/A,,Clear,170,2013-10-21 05:55:00